{"data":{"norad_id":59541,"epoch":"2026-05-24T18:16:04.027872Z","epoch_age_seconds":105746,"freshness":"FRESH","line1":"1 59541U 24074H   26144.76115773 -.00000229  00000+0  12046-5 0  9996","line2":"2 59541  43.0019 273.4711 0001625 265.5126  94.5540 15.27574024117653","mean_motion":15.27574024,"eccentricity":0.0001625,"inclination_deg":43.0019,"raan_deg":273.4711,"arg_perigee_deg":265.5126,"mean_anomaly_deg":94.554,"bstar":1.2046e-6,"rev_number":11765,"period_min":94.267117493221,"perigee_km":481.95204474341,"apogee_km":484.18193604028,"semimajor_km":6861.2039903918,"source":"CELESTRAK","updated_at":"2026-05-25T13:38:18.979944Z"}}